Location: Island
(46.9861°N, 93.0135°W)
Time: 04:39:37
(UTC+00:00)

Envisat - Visible Passes

Search period start: 14 December 2019 00:00
Search period end: 24 December 2019 00:00
Orbit: 764 x 766 km, 98.1° (Epoch: 13 December)

Date Brightness Start Highest point End Pass type
(mag) Time Alt. Az. Time Alt. Az. Time Alt. Az.
14 Dec 3.1 00:07:35 10° SSE 00:12:40 81° WSW 00:17:47 10° NNW visible
14 Dec 6.2 01:51:14 10° W 01:52:30 11° W 01:53:47 10° WNW visible
14 Dec 5.2 12:13:51 10° NE 12:18:13 28° E 12:22:35 10° SSE visible
14 Dec 3.2 23:31:05 10° SE 23:35:58 50° ENE 23:40:53 10° N visible
15 Dec 5.3 01:11:14 10° SW 01:15:15 23° W 01:19:18 10° NW visible
15 Dec 6.1 11:38:31 10° ENE 11:41:02 14° E 11:43:33 10° ESE visible
15 Dec 3.0 13:15:37 10° NNE 13:20:43 84° WNW 13:25:49 10° SSW visible
15 Dec 3.9 22:55:20 10° ESE 22:59:28 26° ENE 23:03:35 10° N visible
16 Dec 4.0 00:33:20 10° S 00:38:13 48° W 00:43:09 10° NNW visible
16 Dec 4.2 12:38:58 10° NNE 12:43:53 47° E 12:48:46 10° S visible
16 Dec 2.9 23:56:18 10° SSE 00:01:23 82° ENE 00:06:30 10° NNW visible
17 Dec 6.0 01:38:29 10° WSW 01:41:03 14° W 01:43:40 10° WNW visible
17 Dec 5.5 12:02:50 10° NE 12:06:50 23° E 12:10:50 10° SE visible
17 Dec 3.4 23:20:01 10° SE 23:24:45 40° ENE 23:29:29 10° N visible
18 Dec 4.9 00:59:30 10° SSW 01:03:53 29° W 01:08:17 10° NW visible
18 Dec 6.3 11:28:29 10° ENE 11:29:35 11° E 11:30:41 10° E visible
18 Dec 3.2 13:04:20 10° NNE 13:09:27 80° ESE 13:14:31 10° S visible
19 Dec 3.5 00:21:53 10° S 00:26:54 60° W 00:31:57 10° NNW visible
19 Dec 4.6 12:27:48 10° NNE 12:32:32 38° E 12:37:15 10° SSE visible
19 Dec 2.9 23:45:06 10° SSE 23:50:07 67° ENE 23:55:11 10° N visible
20 Dec 5.7 01:26:18 10° SW 01:29:38 17° W 01:32:59 10° NW visible
20 Dec 5.8 11:51:54 10° NE 11:55:27 19° E 11:58:57 10° SE visible
20 Dec 3.6 23:09:02 10° SE 23:13:32 33° ENE 23:18:04 10° N visible
21 Dec 4.6 00:47:52 10° SSW 00:52:30 35° W 00:57:11 10° NNW visible
21 Dec 3.6 12:53:04 10° NNE 12:58:09 64° ESE 13:03:11 10° S visible
22 Dec 3.2 00:10:32 10° S 00:15:36 75° WSW 00:20:43 10° NNW visible
22 Dec 5.0 12:16:41 10° NNE 12:21:11 31° E 12:25:39 10° SSE visible
22 Dec 3.1 23:33:57 10° SSE 23:38:52 54° ENE 23:43:50 10° N visible
23 Dec 5.4 01:14:22 10° SW 01:18:14 22° W 01:22:06 10° NW visible
23 Dec 6.0 11:41:09 10° NE 11:44:01 15° E 11:46:52 10° ESE visible
23 Dec 3.0 13:18:32 10° N 13:23:39 78° WNW 13:28:43 10° SSW visible
23 Dec 3.9 22:58:07 10° ESE 23:02:20 27° ENE 23:06:36 10° N visible
